This is the latest recevied weather packets stored in our database for station/object OK2ILA-6. If no packets are shown the sender has not sent any weather packets the latest 10 day(s).
| Time | Temp. | Humidity | Pressure | Rain* | Wind** | Luminosity | Snow |
|---|---|---|---|---|---|---|---|
| 1787477403 | 23.89° C | 44% | 1021 hPa | - | - | - | - |
| 1787476803 | 24.44° C | 42% | 1020.9 hPa | - | - | - | - |
| 1787476202 | 25° C | 43% | 1021 hPa | - | - | - | - |
| 1787475603 | 24.44° C | 43% | 1021.1 hPa | - | - | - | - |
| 1787475003 | 24.44° C | 43% | 1021 hPa | - | - | - | - |
| 1787474403 | 23.33° C | 43% | 1021.2 hPa | - | - | - | - |
| 1787473802 | 23.33° C | 46% | 1021.1 hPa | - | - | - | - |
| 1787473202 | 22.78° C | 48% | 1021.2 hPa | - | - | - | - |
| 1787472603 | 22.22° C | 50% | 1021.2 hPa | - | - | - | - |
| 1787472003 | 21.67° C | 51% | 1021 hPa | - | - | - | - |
| 1787471403 | 21.67° C | 52% | 1021.2 hPa | - | - | - | - |
| 1787470802 | 21.67° C | 54% | 1021 hPa | - | - | - | - |
| 1787470202 | 20.56° C | 56% | 1021 hPa | - | - | - | - |
| 1787469603 | 21.11° C | 58% | 1021.1 hPa | - | - | - | - |
| 1787469003 | 20.56° C | 60% | 1021.2 hPa | - | - | - | - |
| 1787468403 | 20° C | 62% | 1021.2 hPa | - | - | - | - |
| 1787467802 | 18.89° C | 66% | 1021.2 hPa | - | - | - | - |
| 1787467202 | 18.33° C | 68% | 1021.2 hPa | - | - | - | - |
| 1787466603 | 17.78° C | 70% | 1021.2 hPa | - | - | - | - |
| 1787466003 | 17.22° C | 72% | 1021.1 hPa | - | - | - | - |
| 1787465403 | 16.67° C | 74% | 1021.2 hPa | - | - | - | - |
| 1787464803 | 15.56° C | 76% | 1021 hPa | - | - | - | - |
| 1787464203 | 14.44° C | 80% | 1021 hPa | - | - | - | - |
| 1787463603 | 13.33° C | 82% | 1021 hPa | - | - | - | - |
| 1787463003 | 13.33° C | 84% | 1020.8 hPa | - | - | - | - |
* Rain since midnight (hover to see other rain measurements)
** Current wind speed in m/s (hover to see current wind gust speed)